This demonstration page uses our WeatherBlox Daily Observations layout. Learn more.

36.17497, -115.13722

Hourly Observations for July 6, 2019

Temp ( °F °C ) Dew Point ( °F °C ) Humidity (%) Winds ( mph kmh ) Pressure ( in mb ) Visibility ( mi km ) Precip ( " mm )
12:53 am 00:53 Clear 84 28.9 30 -1.1 14 14 Calm 29.88 1012 10 16.09344 0 0
1:53 am 01:53 Clear 82 27.8 33 0.6 17 17 NNW 3 6 29.88 1012 10 16.09344 0 0
2:53 am 02:53 Clear 79 26.1 35 1.7 20 20 NW 3 6 29.88 1012 10 16.09344 0 0
3:53 am 03:53 Clear 77 25 34 1.1 21 21 NNW 5 7 29.91 1013 10 16.09344 0 0
4:53 am 04:53 Clear 74 23.3 34 1.1 23 23 NNW 6 9 29.91 1013 10 16.09344 0 0
5:53 am 05:53 Sunny 73 22.8 36 2.2 26 26 NW 8 13 29.94 1014 10 16.09344 0 0
6:53 am 06:53 Sunny 77 25 36 2.2 23 23 NNW 5 7 29.94 1014 10 16.09344 0 0
7:53 am 07:53 Sunny 84 28.9 35 1.7 17 17 Calm 29.94 1014 10 16.09344 0 0
8:53 am 08:53 Sunny 88 31.1 32 0 13 13 ESE 6 9 29.94 1014 10 16.09344 0 0
9:53 am 09:53 Sunny 91 32.8 33 0.6 13 13 SE 5 7 29.94 1014 10 16.09344 0 0
10:53 am 10:53 Sunny 94 34.4 33 0.6 12 12 SE 14 22 29.94 1014 10 16.09344 0 0
11:53 am 11:53 Sunny 96 35.6 31 -0.6 10 10 E 7 11 29.91 1013 10 16.09344 0 0
12:53 pm 12:53 Sunny 98 36.7 29 -1.7 9 9 SW 9 15 29.91 1013 10 16.09344 0 0
1:53 pm 13:53 Sunny 99 37.2 30 -1.1 9 9 SE 10 17 29.88 1012 10 16.09344 0 0
2:53 pm 14:53 Sunny 100 37.8 30 -1.1 8 8 W 3 6 29.85 1011 10 16.09344 0 0
3:53 pm 15:53 Sunny 102 38.9 28 -2.2 7 7 S 16 26 29.83 1010 10 16.09344 0 0
4:53 pm 16:53 Sunny 101 38.3 27 -2.8 7 7 SSE 10 17 29.8 1009 10 16.09344 0 0
5:53 pm 17:53 Sunny 101 38.3 25 -3.9 7 7 SSE 14 22 29.77 1008 10 16.09344 0 0
6:08 pm 18:08 Sunny 101 38.3 22 -5.6 6 6 S 17 28 29.62 1003 10 16.09344 0 0
6:53 pm 18:53 Sunny 100 37.8 25 -3.9 7 7 S 14 22 29.77 1008 10 16.09344 0 0
7:53 pm 19:53 Sunny 98 36.7 24 -4.4 7 7 SSW 14 22 29.77 1008 10 16.09344 0 0
8:53 pm 20:53 Clear 95 35 24 -4.4 8 8 S 8 13 29.8 1009 10 16.09344 0 0
9:53 pm 21:53 Clear 93 33.9 25 -3.9 8 8 S 9 15 29.8 1009 10 16.09344 0 0
10:53 pm 22:53 Clear 90 32.2 27 -2.8 10 10 SSW 10 17 29.8 1009 10 16.09344 0 0
11:53 pm 23:53 Clear 89 31.7 27 -2.8 11 11 SSW 7 11 29.83 1010 10 16.09344 0 0

Powered by AerisWeather